Hourly Data Report for January 09, 2019

TORONTO CITY
ONTARIO
Current Station Operator: ECCC - MSC

43°40'00.000" N
79°24'00.000" W
112.50 m
6158355
71508
XTO

Download Data

Hourly Data (January 2019)
Hourly Data Report for January 9, 2019
TIME
LST
Temp Definition
°C
Dew Point Definition
°C
Rel Hum Definition
%
Precip. Amount Definition
mm

Wind Dir Definition
10's deg

Wind Spd Definition
km/h
Visibility Definition
km
Stn Press Definition
kPa
Hmdx Definition


Wind Chill Definition


Weather Definition


00:00 3.8 1.9 87 0.7 LegendMM LegendMM   98.87     LegendNANA
01:00 3.3 1.1 85 0.3 LegendMM LegendMM   98.94     LegendNANA
02:00 3.2 0.6 83 0.2 LegendMM LegendMM   99.01     LegendNANA
03:00 3.1 -0.1 79 0.0 LegendMM LegendMM   99.08     LegendNANA
04:00 2.3 -1.7 75 0.0 LegendMM LegendMM   99.11     LegendNANA
05:00 1.4 -3.7 69 0.0 LegendMM LegendMM   99.18     LegendNANA
06:00 1.1 -4.3 67 0.0 LegendMM LegendMM   99.20     LegendNANA
07:00 1.0 -4.0 69 0.0 LegendMM LegendMM   99.24     LegendNANA
08:00 1.0 -4.6 66 0.0 LegendMM LegendMM   99.31     LegendNANA
09:00 0.2 -4.8 69 0.0 LegendMM LegendMM   99.39     LegendNANA
10:00 0.2 -5.5 66 0.0 LegendMM LegendMM   99.44     LegendNANA
11:00 0.4 -5.0 67 0.0 LegendMM LegendMM   99.42     LegendNANA
12:00 0.0 -4.1 74 0.3 LegendMM LegendMM   99.36     LegendNANA
13:00 -0.2 -3.7 77 0.3 LegendMM LegendMM   99.35     LegendNANA
14:00 0.5 -6.3 60 0.0 LegendMM LegendMM   99.36     LegendNANA
15:00 -0.2 -7.2 59 0.0 LegendMM LegendMM   99.39     LegendNANA
16:00 -0.8 -8.7 55 0.0 LegendMM LegendMM   99.46     LegendNANA
17:00 -1.3 -9.4 54 0.2 LegendMM LegendMM   99.53     LegendNANA
18:00 -1.7 -8.4 60 0.0 LegendMM LegendMM   99.56     LegendNANA
19:00 -2.0 -8.5 61 0.0 LegendMM LegendMM   99.60     LegendNANA
20:00 -2.4 -9.2 59 0.0 LegendMM LegendMM   99.58     LegendNANA
21:00 -2.6 -8.3 65 0.0 LegendMM LegendMM   99.62     LegendNANA
22:00 -3.0 -7.4 72 0.0 LegendMM LegendMM   99.65     LegendNANA
23:00 -3.3 -7.2 74 0.0 LegendMM LegendMM   99.68     LegendNANA

Notes on Data Quality.

Legend

  • E = Estimated
  • M = Missing
  • NA = Not Available*
  • [empty] = Indicates an unobserved value
Date modified: